Find Starlink 34020

NORAD ID: 63939 Int'l Des: 2025-098 Owner: SPXS Country: US Constellation: starlink operational
LEOCIRCULAR

Current View

Loading 3D Globe...

About Starlink 34020

Starlink 34020 (NORAD 63939) is a starlink constellation satellite (v2 mini) launched May 13, 2025 by SPXS of US. It operates in LEO, CIRCULAR orbit with a mass of 575.00 kg.

Upcoming Passes

Passes for default location (London). Set your location on the main map for personalized predictions.

Altitude History

Loading altitude history...

Two-Line Element Set

1 63939U 25098P 26226.43430861 .00003242 00000-0 27937-3 0 9993
2 63939 69.9988 236.6209 0004302 263.2802 96.7867 14.98330398 70188
Epoch: Aug 14, 2026 • Age: 9 hours

Current Status

Altitude 593.0 km
Apogee / Perigee N/A
Velocity 7.56 km/s
Sub-Earth Point -64.30°S, 152.21°W
Launch Date May 13, 2025
Age 1.2 years
Type internet

Technical Details

Classification Payload
Mass 575.00 kg
Dry Mass 530.00 kg
Total Mass 575.00 kg
Length 0.30 m
Diameter 4.10 m
Span 29.00 m
Shape Box + pan
Manufacturer SPXS
Bus Type Starlink V2MO
Phase Status In Orbit
Owner/State SPXS/US

Most Searched